Weather History for K9D7 - January, 2013

Change the Weather History Date:

Wednesday, January 2, 2013

  Actual Average (KDVL) Record (KDVL)
Temperature  
Mean Temperature 16 °F -  
Max Temperature 28 °F 14 °F 40 °F (1964)
Min Temperature 5 °F -2 °F -27 °F (1968)
Degree Days  
Heating Degree Days 48    
Moisture  
Dew Point 13 °F    
Average Humidity 86    
Maximum Humidity 100    
Minimum Humidity 73    
Precipitation  
Precipitation 0.00 in - - ()
Sea Level Pressure  
Sea Level Pressure 29.99 in    
Wind  
Wind Speed 15 mph (NNW)    
Max Wind Speed 26 mph    
Max Gust Speed 33 mph    
Visibility 10 miles    
Events Snow    
Averages and records for this station are not official NWS values.
T = Trace of Precipitation, MM = Missing Value Source: NWS Daily Summary

Daily Weather History Graph

Daily Weather History Graph

Search for Another Location

Airport or City:

Trip Planner

Search our weather history database for the weather conditions in past years. The results will help you decide how hot, cold, wet, or windy it might be!

Date:

Astronomy

Jan. 02, 2013 Rise Set
Actual Time 8:28 AM CST 4:53 PM CST
Civil Twilight 7:52 AM CST 5:30 PM CST
Nautical Twilight 7:12 AM CST 6:10 PM CST
Astronomical Twilight 6:34 AM CST 6:48 PM CST
Moon 10:57 PM CST (1/2) 10:44 AM CST (1/2)
Length of Visible Light 9h 38m
Length of Day
8h 25m
Waning Gibbous, 75% of the Moon is Illuminated
Jan 2
Waning Gibbous
Jan 4
Last Quarter
Jan 11
New
Jan 18
First Quarter
Jan 26
Full

Hourly Weather History & Observations

Time (CST) Temp. Windchill Dew Point Humidity Pressure Visibility Wind Dir Wind Speed Gust Speed Precip Events Conditions
12:15 AM 28.4 °F 16.2 °F 28.4 °F 100% 29.76 in 10.0 mi WNW 17.3 mph - N/A   Overcast
12:35 AM 28.4 °F 16.6 °F 28.4 °F 100% 29.76 in 10.0 mi West 16.1 mph - N/A   Overcast
12:55 AM 28.4 °F 15.8 °F 28.4 °F 100% 29.76 in 10.0 mi West 18.4 mph - N/A   Overcast
1:15 AM 28.4 °F 16.6 °F 28.4 °F 100% 29.76 in 10.0 mi WNW 16.1 mph - N/A   Overcast
1:35 AM 28.4 °F 15.8 °F 28.4 °F 100% 29.75 in 10.0 mi WNW 18.4 mph 24.2 mph N/A   Overcast
1:55 AM 28.4 °F 15.8 °F 28.4 °F 100% 29.75 in 10.0 mi WNW 18.4 mph 24.2 mph N/A   Overcast
2:15 AM 28.4 °F 15.4 °F 28.4 °F 100% 29.75 in 10.0 mi WNW 19.6 mph 27.6 mph N/A   Overcast
2:35 AM 28.4 °F 15.4 °F 24.8 °F 86% 29.77 in 10.0 mi NW 19.6 mph 26.5 mph N/A   Overcast
2:55 AM 28.4 °F 17.0 °F 24.8 °F 86% 29.77 in 10.0 mi NW 15.0 mph - N/A   Overcast
3:15 AM 26.6 °F 14.3 °F 23.0 °F 86% 29.78 in 10.0 mi NW 16.1 mph - N/A   Mostly Cloudy
3:35 AM 24.8 °F 11.9 °F 21.2 °F 86% 29.79 in 10.0 mi NW 16.1 mph - N/A   Mostly Cloudy
3:55 AM 24.8 °F 14.6 °F 23.0 °F 93% 29.79 in 10.0 mi WNW 10.4 mph - N/A   Mostly Cloudy
4:15 AM 24.8 °F 13.4 °F 23.0 °F 93% 29.79 in 10.0 mi WNW 12.7 mph - N/A   Overcast
4:35 AM 26.6 °F 16.2 °F 23.0 °F 86% 29.79 in 10.0 mi WNW 11.5 mph - N/A   Overcast
4:55 AM 26.6 °F 15.7 °F 24.8 °F 93% 29.79 in 10.0 mi NW 12.7 mph - N/A   Overcast
5:15 AM 26.6 °F 15.7 °F 24.8 °F 93% 29.80 in 10.0 mi NNW 12.7 mph 17.3 mph N/A   Overcast
5:35 AM 26.6 °F 11.7 °F 23.0 °F 86% 29.81 in 10.0 mi NNW 24.2 mph 31.1 mph N/A   Overcast
6:15 AM 23.0 °F 6.3 °F 19.4 °F 86% 29.83 in 10.0 mi NNW 26.5 mph 33.4 mph N/A   Mostly Cloudy
6:35 AM 23.0 °F 6.6 °F 17.6 °F 80% 29.84 in 10.0 mi NNW 25.3 mph 33.4 mph N/A   Mostly Cloudy
6:55 AM 19.4 °F 4.1 °F 17.6 °F 93% 29.85 in 10.0 mi NNW 18.4 mph - N/A   Scattered Clouds
7:15 AM 19.4 °F 5.5 °F 17.6 °F 93% 29.86 in 10.0 mi NNW 15.0 mph - N/A   Scattered Clouds
7:35 AM 17.6 °F 3.7 °F 15.8 °F 93% 29.87 in 10.0 mi NNW 13.8 mph - N/A   Scattered Clouds
7:55 AM 15.8 °F 2.1 °F 14.0 °F 93% 29.87 in 10.0 mi NNW 12.7 mph - N/A   Overcast
8:15 AM 15.8 °F 3.4 °F 15.8 °F 100% 29.88 in 10.0 mi North 10.4 mph - N/A Snow Light Snow
8:35 AM 15.8 °F 4.2 °F 15.8 °F 100% 29.88 in 10.0 mi NNW 9.2 mph - N/A   Overcast
8:55 AM 17.6 °F 6.4 °F 15.8 °F 93% 29.89 in 10.0 mi NNW 9.2 mph - N/A   Overcast
9:15 AM 19.4 °F 6.0 °F 15.8 °F 86% 29.90 in 10.0 mi North 13.8 mph - N/A   Overcast
9:35 AM 19.4 °F 5.0 °F 15.8 °F 86% 29.90 in 10.0 mi North 16.1 mph 20.7 mph N/A   Overcast
9:55 AM 19.4 °F 5.5 °F 15.8 °F 86% 29.91 in 10.0 mi North 15.0 mph - N/A   Overcast
10:15 AM 19.4 °F 4.1 °F 15.8 °F 86% 29.93 in 10.0 mi North 18.4 mph 24.2 mph N/A   Overcast
10:35 AM 17.6 °F 2.7 °F 14.0 °F 86% 29.95 in 10.0 mi North 16.1 mph - N/A   Mostly Cloudy
10:55 AM 17.6 °F 3.7 °F 14.0 °F 86% 29.96 in 10.0 mi North 13.8 mph - N/A   Partly Cloudy
11:15 AM 17.6 °F 2.2 °F 14.0 °F 86% 29.96 in 10.0 mi North 17.3 mph - N/A   Clear
11:35 AM 17.6 °F 2.2 °F 12.2 °F 79% 29.97 in 10.0 mi North 17.3 mph 25.3 mph N/A   Clear
11:55 AM 15.8 °F -0.2 °F 12.2 °F 86% 29.99 in 10.0 mi North 17.3 mph - N/A   Scattered Clouds
12:15 PM 15.8 °F 0.9 °F 12.2 °F 86% 29.99 in 10.0 mi North 15.0 mph - N/A   Mostly Cloudy
12:35 PM 15.8 °F 2.1 °F 10.4 °F 79% 29.99 in 10.0 mi North 12.7 mph - N/A   Mostly Cloudy
12:55 PM 15.8 °F 1.4 °F 10.4 °F 79% 30.00 in 10.0 mi North 13.8 mph - N/A   Mostly Cloudy
1:15 PM 14.0 °F -2.5 °F 8.6 °F 79% 30.02 in 10.0 mi North 17.3 mph - N/A   Partly Cloudy
1:35 PM 14.0 °F -2.0 °F 8.6 °F 79% 30.03 in 10.0 mi North 16.1 mph 26.5 mph N/A   Clear
1:55 PM 14.0 °F -1.4 °F 6.8 °F 73% 30.02 in 10.0 mi North 15.0 mph 24.2 mph N/A   Partly Cloudy
2:15 PM 14.0 °F -0.2 °F 6.8 °F 73% 30.03 in 10.0 mi North 12.7 mph - N/A   Partly Cloudy
2:35 PM 12.2 °F -4.8 °F 6.8 °F 79% 30.03 in 10.0 mi North 17.3 mph 20.7 mph N/A   Partly Cloudy
2:55 PM 12.2 °F -6.7 °F 6.8 °F 79% 30.04 in 10.0 mi North 21.9 mph - N/A   Clear
3:15 PM 12.2 °F -3.7 °F 6.8 °F 79% 30.06 in 10.0 mi North 15.0 mph 23.0 mph N/A   Clear
3:35 PM 12.2 °F -3.1 °F 6.8 °F 79% 30.06 in 10.0 mi North 13.8 mph - N/A   Clear
3:55 PM 10.4 °F -4.8 °F 6.8 °F 85% 30.07 in 10.0 mi NNW 12.7 mph - N/A   Clear
4:15 PM 10.4 °F -6.0 °F 6.8 °F 85% 30.08 in 10.0 mi NNW 15.0 mph - N/A   Clear
4:35 PM 10.4 °F -6.0 °F 5.0 °F 79% 30.11 in 10.0 mi NNW 15.0 mph - N/A   Clear
4:55 PM 10.4 °F -6.6 °F 5.0 °F 79% 30.12 in 10.0 mi NNW 16.1 mph - N/A   Clear
5:15 PM 8.6 °F -7.7 °F 5.0 °F 85% 30.13 in 10.0 mi NW 13.8 mph - N/A   Clear
5:35 PM 8.6 °F -6.3 °F 5.0 °F 85% 30.14 in 10.0 mi NW 11.5 mph - N/A   Clear
5:55 PM 8.6 °F -6.3 °F 5.0 °F 85% 30.15 in 10.0 mi NW 11.5 mph - N/A   Clear
6:15 PM 6.8 °F -7.8 °F 3.2 °F 85% 30.16 in 10.0 mi NW 10.4 mph - N/A   Clear
6:55 PM 8.6 °F -9.5 °F 5.0 °F 85% 30.17 in 10.0 mi North 17.3 mph - N/A   Clear
7:15 PM 8.6 °F -8.3 °F 3.2 °F 79% 30.18 in 10.0 mi North 15.0 mph - N/A   Clear
7:35 PM 8.6 °F -9.5 °F 3.2 °F 79% 30.20 in 10.0 mi North 17.3 mph 20.7 mph N/A   Clear
7:55 PM 8.6 °F -8.3 °F 3.2 °F 79% 30.19 in 10.0 mi North 15.0 mph - N/A   Clear
8:15 PM 6.8 °F -9.3 °F 3.2 °F 85% 30.20 in 10.0 mi NNW 12.7 mph - N/A   Clear
8:35 PM 6.8 °F -6.9 °F 1.4 °F 79% 30.20 in 10.0 mi NW 9.2 mph - N/A   Clear
8:55 PM 5.0 °F -10.0 °F 1.4 °F 85% 30.20 in 10.0 mi NW 10.4 mph - N/A   Mostly Cloudy
9:15 PM 6.8 °F -5.9 °F 1.4 °F 79% 30.21 in 10.0 mi NNW 8.1 mph - N/A   Overcast
9:35 PM 6.8 °F -3.5 °F 3.2 °F 85% 30.21 in 10.0 mi NW 5.8 mph - N/A Snow Light Snow
9:55 PM 8.6 °F -1.3 °F 5.0 °F 85% 30.21 in 10.0 mi NNW 5.8 mph - N/A   Overcast
10:15 PM 8.6 °F -1.3 °F 5.0 °F 85% 30.22 in 10.0 mi NNW 5.8 mph - N/A   Overcast
10:35 PM 10.4 °F 2.2 °F 6.8 °F 85% 30.23 in 10.0 mi NNW 4.6 mph - N/A Snow Light Snow
10:55 PM 10.4 °F -0.4 °F 8.6 °F 92% 30.23 in 10.0 mi NNW 6.9 mph - N/A Snow Light Snow
11:15 PM 12.2 °F -3.7 °F 6.8 °F 79% 30.23 in 10.0 mi NNW 15.0 mph - N/A   Overcast
11:35 PM 10.4 °F -4.1 °F 6.8 °F 85% 30.24 in 10.0 mi NNW 11.5 mph - N/A   Overcast
11:55 PM 10.4 °F -1.5 °F 5.0 °F 79% 30.23 in 10.0 mi NW 8.1 mph - N/A   Overcast